Location: Auckland
(36.8670°S, 174.7670°E)
Time: 12:26:20
(UTC+12:00)

Tiros 1 despin weight - Pass Details

Date: 23 July 2019
Orbit: 594 x 642 km, 48.2° (Epoch: 20 August)

Event Time Altitude Azimuth Distance (km) Brightness Sun altitude
Rises 04:14:02 0° 233° (SW) 2,868 - -38.3°
Reaches altitude 10° 04:16:35 10° 221° (SW) 1,969 - -37.8°
Maximum altitude 04:20:33 29° 160° (SSE) 1,129 - -37.0°
Exits shadow 04:23:22 16° 109° (ESE) 1,613 ? -36.5°
Drops below altitude 10° 04:24:33 10° 99° (E) 1,984 ? -36.2°
Sets 04:27:07 0° 87° (E) 2,895 ? -35.7°
